Flag for U.S.A. Weather past 2 weeks in Tucson, Arizona, U.S.A.

Now
58 °F

Clear.


Feels Like: 57 °F
Forecast: 52 / 80 °F
Wind: 6 mph from East

Location: Davis-Monthan Air Force Base

Current Time: Apr 25, 2015 at 2:04:47 AM

Latest Report: Apr 25, 2015 at 12:58 AM


Visibility: 10 mi

Pressure: 29.87 "Hg

Humidity: 48%

Dew point: 38 °F

Location of TucsonLocation

Historic Weather in Tucson — Graph

°F

Tucson temperature yesterday

Maximum temperature yesterday: 75 °F (at 2:58 PM)
Minimum temperature yesterday: 53 °F (at 4:58 AM)
Average temperature yesterday: 64 °F

Past Weeks' High & Low Weather Summary

 TemperatureHumidityPressure
High87 °F (Apr 20, 2:58 PM)82% (Apr 13, 4:58 AM)30.10 "Hg (Apr 13, 4:58 AM)
Low42 °F (Apr 17, 5:58 AM)6% (Apr 11, 4:55 PM)29.66 "Hg (Apr 20, 6:58 PM)
Average66 °F26%29.85 "Hg
* Reported Apr 10 12:58 AM — Apr 25 12:58 AM, Tucson, Weather by CustomWeather, © 2015

Note: Actual official high and low records may vary slightly from our data, if they occured in-between our weather recording intervals... More about our weather records

Advertising

Tucson weather history for previous 24 hours

 ConditionsComfort  
Time TempWeatherWind HumidityBarometerVisibility
12:58 AM
Sat, Apr 25
58 °FClear.6 mph48%29.87 "Hg10 mi
11:58 PM
Fri, Apr 24
57 °FClear.6 mph46%29.87 "Hg10 mi
10:58 PM62 °FClear.2 mph42%29.87 "Hg10 mi
9:58 PM62 °FClear.6 mph36%29.87 "Hg10 mi
8:58 PM64 °FClear.6 mph32%29.86 "Hg10 mi
7:58 PM68 °FClear.7 mph27%29.83 "Hg10 mi
6:58 PM71 °FSunny.9 mph24%29.82 "Hg10 mi
5:58 PM73 °FSunny.10 mph23%29.82 "Hg10 mi
3:58 PM74 °FPassing clouds.10 mph21%29.81 "Hg10 mi
2:58 PM75 °FPassing clouds.16 mph22%29.82 "Hg10 mi
1:58 PM72 °FPassing clouds.7 mph29%29.84 "Hg10 mi
12:58 PM71 °FPassing clouds.7 mph31%29.87 "Hg10 mi
11:58 AM67 °FScattered clouds.8 mph37%29.89 "Hg10 mi
10:58 AM64 °FScattered clouds.7 mph43%29.91 "Hg10 mi
9:58 AM63 °FScattered clouds.7 mph47%29.93 "Hg10 mi
8:58 AM61 °FScattered clouds.15 mph53%29.91 "Hg10 mi
7:58 AM60 °FSunny.14 mph55%29.89 "Hg10 mi
6:58 AM58 °FScattered clouds.8 mph60%29.88 "Hg10 mi
5:58 AM55 °FPartly sunny.7 mph64%29.85 "Hg10 mi
4:58 AM53 °FClear.6 mph61%29.83 "Hg10 mi
3:58 AM56 °FClear.8 mph58%29.81 "Hg10 mi
2:58 AM56 °FClear.8 mph51%29.79 "Hg10 mi
Weather by CustomWeather, © 2015

See weather overviewHow to use our weather pages